Wetterdaten: Freitag, 09.01.2015
Datum Zeit Temperatur Luftfeuchte Luftdruck Regen Wind Richtung Richtung Taupunkt Windchill Windben
09.01.2015 00:02 5,9 C 67 % 1030,4 hPa 0,0 l/m 0,0 km/h (0 Bft) W-SW 247 0,3 C 0,0 C 0,0 km/h (0 Bft)
09.01.2015 00:08 5,9 C 68 % 1030,4 hPa 0,0 l/m 0,0 km/h (0 Bft) W-SW 247 0,5 C 0,0 C 0,0 km/h (0 Bft)
09.01.2015 00:13 5,7 C 69 % 1030,4 hPa 0,0 l/m 0,0 km/h (0 Bft) W-SW 247 0,5 C 0,0 C 0,0 km/h (0 Bft)
09.01.2015 00:18 5,6 C 70 % 1030,2 hPa 0,0 l/m 0,0 km/h (0 Bft) W-SW 247 0,6 C 0,0 C 0,0 km/h (0 Bft)
09.01.2015 00:23 5,6 C 69 % 1030,2 hPa 0,0 l/m 0,0 km/h (0 Bft) W-SW 247 0,4 C 0,0 C 0,0 km/h (0 Bft)
09.01.2015 00:28 5,6 C 69 % 1030,2 hPa 0,0 l/m 0,0 km/h (0 Bft) W-SW 247 0,4 C 0,0 C 0,0 km/h (0 Bft)
09.01.2015 00:33 5,6 C 69 % 1030,2 hPa 0,0 l/m 0,0 km/h (0 Bft) W-SW 247 0,4 C 0,0 C 0,0 km/h (0 Bft)
09.01.2015 00:38 5,6 C 70 % 1030,2 hPa 0,0 l/m 0,0 km/h (0 Bft) W-SW 247 0,6 C 0,0 C 0,0 km/h (0 Bft)
09.01.2015 00:43 5,5 C 70 % 1030,2 hPa 0,0 l/m 0,0 km/h (0 Bft) W-SW 247 0,5 C 0,0 C 0,0 km/h (0 Bft)
09.01.2015 00:48 5,3 C 71 % 1030,2 hPa 0,0 l/m 0,0 km/h (0 Bft) W-SW 247 0,5 C 0,0 C 0,0 km/h (0 Bft)
09.01.2015 00:53 5,1 C 72 % 1030,2 hPa 0,0 l/m 0,0 km/h (0 Bft) W-SW 247 0,5 C 0,0 C 0,0 km/h (0 Bft)
09.01.2015 00:58 5,1 C 73 % 1030,4 hPa 0,0 l/m 0,0 km/h (0 Bft) W-SW 247 0,7 C 0,0 C 0,0 km/h (0 Bft)
09.01.2015 01:03 4,9 C 74 % 1030,4 hPa 0,0 l/m 0,0 km/h (0 Bft) W-SW 247 0,7 C 0,0 C 0,0 km/h (0 Bft)
09.01.2015 01:08 4,9 C 75 % 1030,4 hPa 0,0 l/m 0,0 km/h (0 Bft) W-SW 247 0,8 C 0,0 C 0,0 km/h (0 Bft)
09.01.2015 01:13 4,7 C 75 % 1030,4 hPa 0,0 l/m 0,0 km/h (0 Bft) W-SW 247 0,7 C 0,0 C 0,0 km/h (0 Bft)
09.01.2015 01:18 4,6 C 76 % 1030,7 hPa 0,0 l/m 0,0 km/h (0 Bft) W-SW 247 0,7 C 0,0 C 0,0 km/h (0 Bft)
09.01.2015 01:23 4,6 C 76 % 1030,7 hPa 0,0 l/m 0,0 km/h (0 Bft) W-SW 247 0,7 C 0,0 C 0,0 km/h (0 Bft)
09.01.2015 01:28 4,5 C 76 % 1030,7 hPa 0,0 l/m 0,0 km/h (0 Bft) W-SW 247 0,6 C 0,0 C 0,0 km/h (0 Bft)
09.01.2015 01:33 4,5 C 76 % 1030,7 hPa 0,0 l/m 0,0 km/h (0 Bft) W-SW 247 0,6 C 0,0 C 0,0 km/h (0 Bft)
09.01.2015 01:38 4,5 C 76 % 1031,0 hPa 0,0 l/m 0,0 km/h (0 Bft) W-SW 247 0,6 C 0,0 C 0,0 km/h (0 Bft)
09.01.2015 01:43 4,4 C 76 % 1031,0 hPa 0,0 l/m 0,0 km/h (0 Bft) W-SW 247 0,5 C 0,0 C 0,0 km/h (0 Bft)
09.01.2015 01:48 4,5 C 77 % 1031,0 hPa 0,0 l/m 0,0 km/h (0 Bft) W-SW 247 0,8 C 0,0 C 0,0 km/h (0 Bft)
09.01.2015 01:52 4,5 C 77 % 1031,0 hPa 0,0 l/m 0,0 km/h (0 Bft) W-SW 247 0,8 C 0,0 C 0,0 km/h (0 Bft)
09.01.2015 01:57 4,5 C 77 % 1031,0 hPa 0,0 l/m 0,0 km/h (0 Bft) W-SW 247 0,8 C 0,0 C 0,0 km/h (0 Bft)
09.01.2015 02:02 4,5 C 77 % 1031,0 hPa 0,0 l/m 0,0 km/h (0 Bft) W-SW 247 0,8 C 0,0 C 0,0 km/h (0 Bft)
09.01.2015 02:07 4,5 C 77 % 1031,0 hPa 0,0 l/m 0,0 km/h (0 Bft) W-SW 247 0,8 C 0,0 C 0,0 km/h (0 Bft)
09.01.2015 02:12 4,5 C 77 % 1031,0 hPa 0,0 l/m 0,0 km/h (0 Bft) W-SW 247 0,8 C 0,0 C 0,0 km/h (0 Bft)
09.01.2015 02:17 4,3 C 77 % 1031,3 hPa 0,0 l/m 0,0 km/h (0 Bft) W-SW 247 0,6 C 0,0 C 0,0 km/h (0 Bft)
09.01.2015 02:22 4,4 C 77 % 1031,3 hPa 0,0 l/m 0,0 km/h (0 Bft) W-SW 247 0,7 C 0,0 C 0,0 km/h (0 Bft)
09.01.2015 02:27 4,5 C 77 % 1031,3 hPa 0,0 l/m 0,0 km/h (0 Bft) W-SW 247 0,8 C 0,0 C 0,0 km/h (0 Bft)
09.01.2015 02:32 4,5 C 77 % 1031,3 hPa 0,0 l/m 0,0 km/h (0 Bft) W-SW 247 0,8 C 0,0 C 0,0 km/h (0 Bft)
09.01.2015 02:37 4,5 C 77 % 1031,4 hPa 0,0 l/m 0,0 km/h (0 Bft) W-SW 247 0,8 C 0,0 C 0,0 km/h (0 Bft)
09.01.2015 02:42 4,4 C 77 % 1031,4 hPa 0,0 l/m 0,0 km/h (0 Bft) W-SW 247 0,7 C 0,0 C 0,0 km/h (0 Bft)
09.01.2015 02:47 4,3 C 77 % 1031,4 hPa 0,0 l/m 0,0 km/h (0 Bft) W-SW 247 0,6 C 0,0 C 0,0 km/h (0 Bft)
09.01.2015 02:52 4,3 C 77 % 1031,4 hPa 0,0 l/m 0,0 km/h (0 Bft) W-SW 247 0,6 C 0,0 C 0,0 km/h (0 Bft)
09.01.2015 02:57 4,4 C 77 % 1031,2 hPa 0,0 l/m 0,0 km/h (0 Bft) W-SW 247 0,7 C 0,0 C 0,0 km/h (0 Bft)
09.01.2015 03:02 4,4 C 77 % 1031,2 hPa 0,0 l/m 0,0 km/h (0 Bft) W-SW 247 0,7 C 0,0 C 0,0 km/h (0 Bft)
09.01.2015 03:08 4,5 C 77 % 1031,2 hPa 0,0 l/m 0,0 km/h (0 Bft) W-SW 247 0,8 C 0,0 C 0,0 km/h (0 Bft)
09.01.2015 03:13 4,5 C 77 % 1031,2 hPa 0,0 l/m 0,0 km/h (0 Bft) W-SW 247 0,8 C 0,0 C 0,0 km/h (0 Bft)
09.01.2015 03:18 4,4 C 77 % 1031,6 hPa 0,0 l/m 0,0 km/h (0 Bft) W-SW 247 0,7 C 0,0 C 0,0 km/h (0 Bft)
09.01.2015 03:23 4,4 C 77 % 1031,6 hPa 0,0 l/m 0,0 km/h (0 Bft) W-SW 247 0,7 C 0,0 C 0,0 km/h (0 Bft)
09.01.2015 03:28 4,4 C 77 % 1031,6 hPa 0,0 l/m 0,0 km/h (0 Bft) W-SW 247 0,7 C 0,0 C 0,0 km/h (0 Bft)
09.01.2015 03:33 4,4 C 77 % 1031,6 hPa 0,0 l/m 0,0 km/h (0 Bft) W-SW 247 0,7 C 0,0 C 0,0 km/h (0 Bft)
09.01.2015 03:38 4,5 C 76 % 1031,4 hPa 0,0 l/m 0,0 km/h (0 Bft) W-SW 247 0,6 C 0,0 C 0,0 km/h (0 Bft)
09.01.2015 03:43 4,5 C 76 % 1031,4 hPa 0,0 l/m 0,0 km/h (0 Bft) W-SW 247 0,6 C 0,0 C 0,0 km/h (0 Bft)
09.01.2015 03:48 4,4 C 76 % 1031,4 hPa 0,0 l/m 0,0 km/h (0 Bft) W-SW 247 0,5 C 0,0 C 0,0 km/h (0 Bft)
09.01.2015 03:52 4,4 C 76 % 1031,4 hPa 0,0 l/m 0,0 km/h (0 Bft) W-SW 247 0,5 C 0,0 C 0,0 km/h (0 Bft)
09.01.2015 03:57 4,3 C 76 % 1031,2 hPa 0,0 l/m 0,0 km/h (0 Bft) W-SW 247 0,5 C 0,0 C 0,0 km/h (0 Bft)
09.01.2015 04:02 4,3 C 76 % 1031,2 hPa 0,0 l/m 0,0 km/h (0 Bft) W-SW 247 0,5 C 0,0 C 0,0 km/h (0 Bft)
09.01.2015 04:07 4,1 C 76 % 1031,2 hPa 0,0 l/m 0,0 km/h (0 Bft) W-SW 247 0,3 C 0,0 C 0,0 km/h (0 Bft)
09.01.2015 04:12 4,0 C 76 % 1031,2 hPa 0,0 l/m 0,0 km/h (0 Bft) W-SW 247 0,2 C 0,0 C 0,0 km/h (0 Bft)
09.01.2015 04:17 3,8 C 77 % 1030,8 hPa 0,0 l/m 0,0 km/h (0 Bft) W-SW 247 0,1 C 0,0 C 0,0 km/h (0 Bft)
09.01.2015 04:22 3,8 C 77 % 1030,8 hPa 0,0 l/m 0,0 km/h (0 Bft) W-SW 247 0,1 C 0,0 C 0,0 km/h (0 Bft)
09.01.2015 04:27 3,9 C 76 % 1030,8 hPa 0,0 l/m 0,0 km/h (0 Bft) W-SW 247 0,1 C 0,0 C 0,0 km/h (0 Bft)
09.01.2015 04:32 3,6 C 76 % 1030,8 hPa 0,0 l/m 0,0 km/h (0 Bft) W-SW 247 -0,2 C 0,0 C 0,0 km/h (0 Bft)
09.01.2015 04:37 3,5 C 76 % 1030,6 hPa 0,0 l/m 0,0 km/h (0 Bft) W-SW 247 -0,3 C 0,0 C 0,0 km/h (0 Bft)
09.01.2015 04:42 3,5 C 76 % 1030,6 hPa 0,0 l/m 7,7 km/h (2 Bft) W 270 -0,3 C 0,8 C 10,1 km/h (2 Bft)
09.01.2015 04:47 3,4 C 76 % 1030,6 hPa 0,0 l/m 7,7 km/h (2 Bft) W 270 -0,4 C 0,8 C 10,1 km/h (2 Bft)
09.01.2015 04:52 3,4 C 76 % 1030,6 hPa 0,0 l/m 7,7 km/h (2 Bft) W 270 -0,4 C 0,8 C 10,1 km/h (2 Bft)
09.01.2015 04:57 3,5 C 77 % 1030,6 hPa 0,0 l/m 0,0 km/h (0 Bft) W 270 -0,1 C 2,1 C 0,0 km/h (0 Bft)
09.01.2015 05:02 3,5 C 76 % 1030,6 hPa 0,0 l/m 0,0 km/h (0 Bft) W 270 -0,3 C 2,1 C 0,0 km/h (0 Bft)
09.01.2015 05:07 3,6 C 76 % 1030,6 hPa 0,0 l/m 0,0 km/h (0 Bft) W 270 -0,2 C 2,1 C 0,0 km/h (0 Bft)
09.01.2015 05:12 3,4 C 76 % 1030,6 hPa 0,0 l/m 0,0 km/h (0 Bft) W 270 -0,4 C 2,1 C 0,0 km/h (0 Bft)
09.01.2015 05:17 3,4 C 76 % 1030,2 hPa 0,0 l/m 0,0 km/h (0 Bft) W 270 -0,4 C 2,1 C 0,0 km/h (0 Bft)
09.01.2015 05:22 3,4 C 76 % 1030,2 hPa 0,0 l/m 0,0 km/h (0 Bft) W 270 -0,4 C 2,1 C 0,0 km/h (0 Bft)
09.01.2015 05:27 3,2 C 76 % 1030,2 hPa 0,0 l/m 0,0 km/h (0 Bft) W 270 -0,6 C 2,1 C 0,0 km/h (0 Bft)
09.01.2015 05:32 3,3 C 77 % 1030,2 hPa 0,0 l/m 0,0 km/h (0 Bft) W 270 -0,3 C 2,1 C 0,0 km/h (0 Bft)
09.01.2015 05:37 3,4 C 76 % 1030,1 hPa 0,0 l/m 0,0 km/h (0 Bft) W 270 -0,4 C 2,1 C 0,0 km/h (0 Bft)
09.01.2015 05:42 3,3 C 76 % 1030,1 hPa 0,0 l/m 0,0 km/h (0 Bft) W 270 -0,5 C 2,1 C 0,0 km/h (0 Bft)
09.01.2015 05:47 3,4 C 76 % 1030,1 hPa 0,0 l/m 0,0 km/h (0 Bft) W 270 -0,4 C 2,1 C 0,0 km/h (0 Bft)
09.01.2015 05:52 3,4 C 76 % 1030,1 hPa 0,0 l/m 0,0 km/h (0 Bft) W 270 -0,4 C 2,1 C 0,0 km/h (0 Bft)
09.01.2015 05:57 3,5 C 76 % 1030,1 hPa 0,0 l/m 0,0 km/h (0 Bft) W 270 -0,3 C 2,1 C 0,0 km/h (0 Bft)
09.01.2015 06:02 3,5 C 76 % 1030,1 hPa 0,0 l/m 0,0 km/h (0 Bft) W 270 -0,3 C 2,1 C 0,0 km/h (0 Bft)
09.01.2015 06:07 3,4 C 75 % 1030,1 hPa 0,0 l/m 0,0 km/h (0 Bft) W 270 -0,6 C 2,1 C 0,0 km/h (0 Bft)
09.01.2015 06:12 3,2 C 76 % 1030,1 hPa 0,0 l/m 0,0 km/h (0 Bft) W 270 -0,6 C 2,1 C 0,0 km/h (0 Bft)
09.01.2015 06:17 3,0 C 76 % 1029,8 hPa 0,0 l/m 0,0 km/h (0 Bft) W 270 -0,8 C 2,1 C 0,0 km/h (0 Bft)
09.01.2015 06:22 2,9 C 76 % 1029,8 hPa 0,0 l/m 0,0 km/h (0 Bft) W 270 -0,9 C 2,1 C 0,0 km/h (0 Bft)
09.01.2015 06:27 2,5 C 76 % 1029,8 hPa 0,0 l/m 0,0 km/h (0 Bft) W 270 -1,3 C 2,1 C 0,0 km/h (0 Bft)
09.01.2015 06:32 2,6 C 77 % 1029,8 hPa 0,0 l/m 0,0 km/h (0 Bft) W 270 -1,0 C 2,1 C 0,0 km/h (0 Bft)
09.01.2015 06:37 3,0 C 77 % 1029,9 hPa 0,0 l/m 0,0 km/h (0 Bft) W 270 -0,6 C 2,1 C 0,0 km/h (0 Bft)
09.01.2015 06:42 3,1 C 77 % 1029,9 hPa 0,0 l/m 0,0 km/h (0 Bft) W 270 -0,5 C 2,1 C 0,0 km/h (0 Bft)
09.01.2015 06:47 3,2 C 76 % 1029,9 hPa 0,0 l/m 0,0 km/h (0 Bft) W 270 -0,6 C 2,1 C 0,0 km/h (0 Bft)
09.01.2015 06:52 3,2 C 76 % 1029,9 hPa 0,0 l/m 0,0 km/h (0 Bft) W 270 -0,6 C 2,1 C 0,0 km/h (0 Bft)
09.01.2015 06:57 3,4 C 76 % 1029,6 hPa 0,0 l/m 0,0 km/h (0 Bft) W 270 -0,4 C 2,1 C 0,0 km/h (0 Bft)
09.01.2015 07:02 3,5 C 76 % 1029,6 hPa 0,0 l/m 0,0 km/h (0 Bft) W 270 -0,3 C 2,1 C 0,0 km/h (0 Bft)
09.01.2015 07:07 3,7 C 75 % 1029,6 hPa 0,0 l/m 0,0 km/h (0 Bft) W 270 -0,3 C 2,1 C 0,0 km/h (0 Bft)
09.01.2015 07:12 3,7 C 75 % 1029,6 hPa 0,0 l/m 0,0 km/h (0 Bft) W 270 -0,3 C 2,1 C 0,0 km/h (0 Bft)
09.01.2015 07:17 3,9 C 74 % 1029,2 hPa 0,0 l/m 0,0 km/h (0 Bft) W 270 -0,3 C 2,1 C 0,0 km/h (0 Bft)
09.01.2015 07:22 4,0 C 74 % 1029,2 hPa 0,0 l/m 0,0 km/h (0 Bft) W 270 -0,2 C 2,1 C 0,0 km/h (0 Bft)
09.01.2015 07:27 4,0 C 74 % 1029,2 hPa 0,0 l/m 0,0 km/h (0 Bft) W 270 -0,2 C 2,1 C 0,0 km/h (0 Bft)
09.01.2015 07:32 3,9 C 74 % 1029,2 hPa 0,0 l/m 0,0 km/h (0 Bft) W 270 -0,3 C 2,1 C 0,0 km/h (0 Bft)
09.01.2015 07:37 3,9 C 74 % 1028,9 hPa 0,0 l/m 0,0 km/h (0 Bft) W 270 -0,3 C 2,1 C 0,0 km/h (0 Bft)
09.01.2015 07:42 3,9 C 74 % 1028,9 hPa 0,0 l/m 0,0 km/h (0 Bft) W 270 -0,3 C 2,1 C 0,0 km/h (0 Bft)
09.01.2015 07:47 3,9 C 74 % 1028,9 hPa 0,0 l/m 0,0 km/h (0 Bft) W 270 -0,3 C 2,1 C 0,0 km/h (0 Bft)
09.01.2015 07:52 3,9 C 73 % 1028,9 hPa 0,0 l/m 0,0 km/h (0 Bft) W 270 -0,5 C 2,1 C 0,0 km/h (0 Bft)
09.01.2015 07:57 3,9 C 73 % 1028,6 hPa 0,0 l/m 0,0 km/h (0 Bft) W 270 -0,5 C 2,1 C 0,0 km/h (0 Bft)
09.01.2015 08:02 4,0 C 73 % 1028,6 hPa 0,0 l/m 0,0 km/h (0 Bft) W 270 -0,4 C 2,1 C 0,0 km/h (0 Bft)
09.01.2015 08:07 4,0 C 73 % 1028,6 hPa 0,0 l/m 0,0 km/h (0 Bft) W 270 -0,4 C 2,1 C 0,0 km/h (0 Bft)
09.01.2015 08:12 4,0 C 73 % 1028,6 hPa 0,0 l/m 0,0 km/h (0 Bft) W 270 -0,4 C 2,1 C 0,0 km/h (0 Bft)
09.01.2015 08:17 4,0 C 73 % 1028,8 hPa 0,0 l/m 0,0 km/h (0 Bft) W 270 -0,4 C 2,1 C 0,0 km/h (0 Bft)
09.01.2015 08:22 4,0 C 73 % 1028,8 hPa 0,0 l/m 0,0 km/h (0 Bft) W 270 -0,4 C 2,1 C 0,0 km/h (0 Bft)
09.01.2015 08:27 4,0 C 73 % 1028,8 hPa 0,0 l/m 0,0 km/h (0 Bft) W 270 -0,4 C 2,1 C 0,0 km/h (0 Bft)
09.01.2015 08:32 4,1 C 72 % 1028,8 hPa 0,0 l/m 0,0 km/h (0 Bft) W 270 -0,5 C 2,1 C 0,0 km/h (0 Bft)
09.01.2015 08:37 4,1 C 72 % 1028,9 hPa 0,0 l/m 0,0 km/h (0 Bft) W 270 -0,5 C 2,1 C 0,0 km/h (0 Bft)
09.01.2015 08:42 4,2 C 72 % 1028,9 hPa 0,0 l/m 0,0 km/h (0 Bft) W 270 -0,4 C 2,1 C 0,0 km/h (0 Bft)
09.01.2015 08:47 4,2 C 72 % 1028,9 hPa 0,0 l/m 0,0 km/h (0 Bft) W 270 -0,4 C 2,1 C 0,0 km/h (0 Bft)
09.01.2015 08:52 4,2 C 72 % 1028,9 hPa 0,0 l/m 0,0 km/h (0 Bft) W 270 -0,4 C 2,1 C 0,0 km/h (0 Bft)
09.01.2015 08:57 4,2 C 72 % 1029,4 hPa 0,0 l/m 0,0 km/h (0 Bft) W 270 -0,4 C 2,1 C 0,0 km/h (0 Bft)
09.01.2015 09:02 4,3 C 72 % 1029,4 hPa 0,0 l/m 0,0 km/h (0 Bft) W 270 -0,3 C 2,1 C 0,0 km/h (0 Bft)
09.01.2015 09:07 4,3 C 71 % 1029,4 hPa 0,0 l/m 0,0 km/h (0 Bft) W 270 -0,5 C 2,1 C 0,0 km/h (0 Bft)
09.01.2015 09:12 4,2 C 71 % 1029,4 hPa 0,0 l/m 0,0 km/h (0 Bft) W 270 -0,6 C 2,1 C 0,0 km/h (0 Bft)
09.01.2015 09:17 4,5 C 70 % 1029,1 hPa 0,0 l/m 0,0 km/h (0 Bft) W 270 -0,5 C 2,1 C 0,0 km/h (0 Bft)
09.01.2015 09:22 4,6 C 69 % 1029,1 hPa 0,0 l/m 0,0 km/h (0 Bft) W 270 -0,6 C 2,1 C 0,0 km/h (0 Bft)
09.01.2015 09:27 4,5 C 69 % 1029,1 hPa 0,0 l/m 0,0 km/h (0 Bft) W 270 -0,7 C 2,1 C 0,0 km/h (0 Bft)
09.01.2015 09:32 4,6 C 68 % 1029,1 hPa 0,0 l/m 0,0 km/h (0 Bft) W 270 -0,8 C 2,1 C 0,0 km/h (0 Bft)
09.01.2015 09:37 4,7 C 67 % 1028,5 hPa 0,0 l/m 0,0 km/h (0 Bft) W 270 -0,9 C 2,1 C 0,0 km/h (0 Bft)
09.01.2015 09:42 4,8 C 66 % 1028,5 hPa 0,0 l/m 0,0 km/h (0 Bft) W 270 -1,0 C 2,1 C 0,0 km/h (0 Bft)
09.01.2015 09:47 4,5 C 66 % 1028,5 hPa 0,0 l/m 0,0 km/h (0 Bft) W 270 -1,3 C 2,1 C 0,0 km/h (0 Bft)
09.01.2015 09:52 4,6 C 66 % 1028,5 hPa 0,0 l/m 0,0 km/h (0 Bft) W 270 -1,2 C 2,1 C 0,0 km/h (0 Bft)
09.01.2015 09:57 4,5 C 65 % 1028,1 hPa 0,0 l/m 0,0 km/h (0 Bft) W 270 -1,5 C 2,1 C 0,0 km/h (0 Bft)
09.01.2015 10:02 4,7 C 64 % 1028,1 hPa 0,0 l/m 0,0 km/h (0 Bft) W 270 -1,5 C 2,1 C 0,0 km/h (0 Bft)
09.01.2015 10:07 5,1 C 61 % 1028,1 hPa 0,0 l/m 0,0 km/h (0 Bft) W 270 -1,8 C 2,1 C 0,0 km/h (0 Bft)
09.01.2015 10:12 5,3 C 61 % 1028,1 hPa 0,0 l/m 0,0 km/h (0 Bft) W 270 -1,6 C 2,1 C 0,0 km/h (0 Bft)
09.01.2015 10:17 5,3 C 62 % 1028,6 hPa 0,0 l/m 0,0 km/h (0 Bft) W 270 -1,4 C 2,1 C 0,0 km/h (0 Bft)
09.01.2015 10:22 5,3 C 62 % 1028,6 hPa 0,0 l/m 0,0 km/h (0 Bft) W 270 -1,4 C 2,1 C 0,0 km/h (0 Bft)
09.01.2015 10:27 5,3 C 62 % 1028,6 hPa 0,0 l/m 0,0 km/h (0 Bft) W 270 -1,4 C 2,1 C 0,0 km/h (0 Bft)
09.01.2015 10:32 5,4 C 61 % 1028,6 hPa 0,0 l/m 0,0 km/h (0 Bft) W 270 -1,5 C 2,1 C 0,0 km/h (0 Bft)
09.01.2015 10:37 5,6 C 59 % 1027,9 hPa 0,0 l/m 0,0 km/h (0 Bft) W 270 -1,8 C 2,1 C 0,0 km/h (0 Bft)
09.01.2015 10:42 6,0 C 57 % 1027,9 hPa 0,0 l/m 0,0 km/h (0 Bft) W 270 -1,9 C 2,1 C 0,0 km/h (0 Bft)
09.01.2015 10:47 6,4 C 55 % 1027,9 hPa 0,0 l/m 0,0 km/h (0 Bft) W 270 -2,0 C 2,1 C 0,0 km/h (0 Bft)
09.01.2015 10:52 6,4 C 55 % 1027,9 hPa 0,0 l/m 0,0 km/h (0 Bft) W 270 -2,0 C 2,1 C 0,0 km/h (0 Bft)
09.01.2015 10:57 7,2 C 53 % 1026,6 hPa 0,0 l/m 0,0 km/h (0 Bft) W 270 -1,7 C 2,1 C 0,0 km/h (0 Bft)
09.01.2015 11:02 7,6 C 52 % 1026,6 hPa 0,0 l/m 0,0 km/h (0 Bft) W 270 -1,6 C 2,1 C 0,0 km/h (0 Bft)
09.01.2015 11:07 8,5 C 46 % 1026,6 hPa 0,0 l/m 0,0 km/h (0 Bft) W 270 -2,4 C 2,1 C 0,0 km/h (0 Bft)
09.01.2015 11:12 8,8 C 44 % 1026,6 hPa 0,0 l/m 0,0 km/h (0 Bft) W 270 -2,8 C 2,1 C 0,0 km/h (0 Bft)
09.01.2015 11:17 8,2 C 48 % 1026,0 hPa 0,0 l/m 0,0 km/h (0 Bft) W 270 -2,1 C 2,1 C 0,0 km/h (0 Bft)
09.01.2015 11:22 7,7 C 49 % 1026,0 hPa 0,0 l/m 0,0 km/h (0 Bft) W 270 -2,3 C 2,1 C 0,0 km/h (0 Bft)
09.01.2015 11:27 7,7 C 49 % 1026,0 hPa 0,0 l/m 0,0 km/h (0 Bft) W 270 -2,3 C 2,1 C 0,0 km/h (0 Bft)
09.01.2015 11:32 7,9 C 48 % 1026,0 hPa 0,0 l/m 0,0 km/h (0 Bft) W 270 -2,4 C 2,1 C 0,0 km/h (0 Bft)
09.01.2015 11:37 8,0 C 46 % 1027,4 hPa 0,0 l/m 0,0 km/h (0 Bft) W 270 -2,9 C 2,1 C 0,0 km/h (0 Bft)
09.01.2015 11:42 8,3 C 43 % 1027,4 hPa 0,0 l/m 0,0 km/h (0 Bft) W 270 -3,5 C 2,1 C 0,0 km/h (0 Bft)
09.01.2015 11:47 8,4 C 39 % 1027,4 hPa 0,0 l/m 0,0 km/h (0 Bft) W 270 -4,7 C 2,1 C 0,0 km/h (0 Bft)
09.01.2015 11:52 8,6 C 38 % 1027,4 hPa 0,0 l/m 0,0 km/h (0 Bft) W 270 -4,9 C 2,1 C 0,0 km/h (0 Bft)
09.01.2015 11:57 8,7 C 36 % 1026,4 hPa 0,0 l/m 0,0 km/h (0 Bft) W 270 -5,5 C 2,1 C 0,0 km/h (0 Bft)
09.01.2015 12:02 8,9 C 36 % 1026,4 hPa 0,0 l/m 0,0 km/h (0 Bft) W 270 -5,3 C 2,1 C 0,0 km/h (0 Bft)
09.01.2015 12:07 9,1 C 35 % 1026,4 hPa 0,0 l/m 0,0 km/h (0 Bft) W 270 -5,5 C 2,1 C 0,0 km/h (0 Bft)
09.01.2015 12:12 9,1 C 35 % 1026,4 hPa 0,0 l/m 0,0 km/h (0 Bft) W 270 -5,5 C 2,1 C 0,0 km/h (0 Bft)
09.01.2015 12:17 9,2 C 35 % 1025,2 hPa 0,0 l/m 0,0 km/h (0 Bft) W 270 -5,4 C 2,1 C 0,0 km/h (0 Bft)
09.01.2015 12:22 9,5 C 34 % 1025,2 hPa 0,0 l/m 0,0 km/h (0 Bft) W 270 -5,6 C 2,1 C 0,0 km/h (0 Bft)
09.01.2015 12:27 9,7 C 33 % 1025,2 hPa 0,0 l/m 0,0 km/h (0 Bft) W 270 -5,8 C 2,1 C 0,0 km/h (0 Bft)
09.01.2015 12:32 10,1 C 32 % 1025,2 hPa 0,0 l/m 0,0 km/h (0 Bft) W 270 -5,8 C 2,1 C 0,0 km/h (0 Bft)
09.01.2015 12:37 10,1 C 32 % 1025,2 hPa 0,0 l/m 0,0 km/h (0 Bft) W 270 -5,8 C 2,1 C 0,0 km/h (0 Bft)
09.01.2015 12:42 9,9 C 32 % 1025,2 hPa 0,0 l/m 0,0 km/h (0 Bft) W 270 -6,0 C 2,1 C 0,0 km/h (0 Bft)
09.01.2015 12:47 9,6 C 33 % 1025,2 hPa 0,0 l/m 0,0 km/h (0 Bft) W 270 -5,9 C 2,1 C 0,0 km/h (0 Bft)
09.01.2015 12:52 9,6 C 33 % 1025,2 hPa 0,0 l/m 0,0 km/h (0 Bft) W 270 -5,9 C 2,1 C 0,0 km/h (0 Bft)
09.01.2015 12:57 9,7 C 33 % 1024,8 hPa 0,0 l/m 0,0 km/h (0 Bft) W 270 -5,8 C 2,1 C 0,0 km/h (0 Bft)
09.01.2015 13:02 9,6 C 33 % 1024,8 hPa 0,0 l/m 0,0 km/h (0 Bft) W 270 -5,9 C 2,1 C 0,0 km/h (0 Bft)
09.01.2015 13:07 9,6 C 33 % 1024,8 hPa 0,0 l/m 0,0 km/h (0 Bft) W 270 -5,9 C 2,1 C 0,0 km/h (0 Bft)
09.01.2015 13:12 9,6 C 33 % 1024,8 hPa 0,0 l/m 0,0 km/h (0 Bft) W 270 -5,9 C 2,1 C 0,0 km/h (0 Bft)
09.01.2015 13:17 9,6 C 34 % 1024,3 hPa 0,0 l/m 0,0 km/h (0 Bft) W 270 -5,5 C 2,1 C 0,0 km/h (0 Bft)
09.01.2015 13:22 9,4 C 34 % 1024,3 hPa 0,0 l/m 0,0 km/h (0 Bft) W 270 -5,6 C 2,1 C 0,0 km/h (0 Bft)
09.01.2015 13:27 9,1 C 35 % 1024,3 hPa 0,0 l/m 0,0 km/h (0 Bft) W 270 -5,5 C 2,1 C 0,0 km/h (0 Bft)
09.01.2015 13:32 9,0 C 35 % 1024,3 hPa 0,0 l/m 0,0 km/h (0 Bft) W 270 -5,6 C 2,1 C 0,0 km/h (0 Bft)
09.01.2015 13:37 9,0 C 36 % 1024,1 hPa 0,0 l/m 11,7 km/h (2 Bft) W 270 -5,3 C 5,2 C 22,4 km/h (4 Bft)
09.01.2015 13:42 9,0 C 37 % 1024,1 hPa 0,0 l/m 11,7 km/h (2 Bft) W 270 -4,9 C 5,2 C 22,4 km/h (4 Bft)
09.01.2015 13:47 9,0 C 37 % 1024,1 hPa 0,0 l/m 11,7 km/h (2 Bft) W 270 -4,9 C 5,2 C 22,4 km/h (4 Bft)
09.01.2015 13:52 9,1 C 38 % 1024,1 hPa 0,0 l/m 0,0 km/h (0 Bft) W 270 -4,5 C 8,7 C 0,0 km/h (0 Bft)
09.01.2015 13:57 9,1 C 38 % 1024,2 hPa 0,0 l/m 0,0 km/h (0 Bft) W 270 -4,5 C 8,7 C 0,0 km/h (0 Bft)
09.01.2015 14:02 9,2 C 38 % 1024,2 hPa 0,0 l/m 0,0 km/h (0 Bft) W 270 -4,4 C 8,7 C 0,0 km/h (0 Bft)
09.01.2015 14:07 9,2 C 39 % 1024,2 hPa 0,0 l/m 0,0 km/h (0 Bft) W 270 -4,0 C 8,7 C 0,0 km/h (0 Bft)
09.01.2015 14:12 9,1 C 39 % 1024,2 hPa 0,0 l/m 0,0 km/h (0 Bft) W 270 -4,1 C 8,7 C 0,0 km/h (0 Bft)
09.01.2015 14:17 9,1 C 40 % 1024,6 hPa 0,0 l/m 0,0 km/h (0 Bft) W 270 -3,8 C 8,7 C 0,0 km/h (0 Bft)
09.01.2015 14:22 9,1 C 40 % 1024,6 hPa 0,0 l/m 0,0 km/h (0 Bft) W 270 -3,8 C 8,7 C 0,0 km/h (0 Bft)
09.01.2015 14:27 8,9 C 42 % 1024,6 hPa 0,0 l/m 0,0 km/h (0 Bft) W 270 -3,3 C 8,7 C 0,0 km/h (0 Bft)
09.01.2015 14:32 8,8 C 43 % 1024,6 hPa 0,0 l/m 0,0 km/h (0 Bft) W 270 -3,1 C 8,7 C 0,0 km/h (0 Bft)
09.01.2015 14:37 8,8 C 44 % 1024,6 hPa 0,0 l/m 0,0 km/h (0 Bft) W 270 -2,8 C 8,7 C 0,0 km/h (0 Bft)
09.01.2015 14:42 8,7 C 46 % 1024,6 hPa 0,0 l/m 0,0 km/h (0 Bft) W 270 -2,3 C 8,7 C 0,0 km/h (0 Bft)
09.01.2015 14:47 8,6 C 49 % 1024,6 hPa 0,0 l/m 0,0 km/h (0 Bft) W 270 -1,5 C 8,7 C 0,0 km/h (0 Bft)
09.01.2015 14:52 8,5 C 50 % 1024,6 hPa 0,0 l/m 0,0 km/h (0 Bft) W 270 -1,3 C 8,7 C 0,0 km/h (0 Bft)
09.01.2015 14:57 8,2 C 52 % 1024,8 hPa 0,0 l/m 0,0 km/h (0 Bft) W 270 -1,1 C 8,7 C 0,0 km/h (0 Bft)
09.01.2015 15:02 8,1 C 53 % 1024,8 hPa 0,0 l/m 0,0 km/h (0 Bft) W 270 -0,9 C 8,7 C 0,0 km/h (0 Bft)
09.01.2015 15:07 7,9 C 56 % 1024,8 hPa 0,0 l/m 0,0 km/h (0 Bft) W 270 -0,3 C 8,7 C 0,0 km/h (0 Bft)
09.01.2015 15:12 7,7 C 57 % 1024,8 hPa 0,0 l/m 0,0 km/h (0 Bft) W 270 -0,3 C 8,7 C 0,0 km/h (0 Bft)
09.01.2015 15:17 7,5 C 58 % 1025,1 hPa 0,0 l/m 0,0 km/h (0 Bft) W 270 -0,2 C 8,7 C 0,0 km/h (0 Bft)
09.01.2015 15:22 7,4 C 59 % 1025,1 hPa 0,0 l/m 0,0 km/h (0 Bft) W 270 -0,1 C 8,7 C 0,0 km/h (0 Bft)
09.01.2015 15:27 7,3 C 60 % 1025,1 hPa 0,0 l/m 0,0 km/h (0 Bft) W 270 0,1 C 8,7 C 0,0 km/h (0 Bft)
09.01.2015 15:32 7,3 C 60 % 1025,1 hPa 0,0 l/m 0,0 km/h (0 Bft) W 270 0,1 C 8,7 C 0,0 km/h (0 Bft)
09.01.2015 15:37 7,2 C 62 % 1024,4 hPa 0,0 l/m 0,0 km/h (0 Bft) W 270 0,4 C 8,7 C 0,0 km/h (0 Bft)
09.01.2015 15:42 7,2 C 63 % 1024,4 hPa 0,0 l/m 0,0 km/h (0 Bft) W 270 0,6 C 8,7 C 0,0 km/h (0 Bft)
09.01.2015 15:47 7,3 C 63 % 1024,4 hPa 0,0 l/m 0,0 km/h (0 Bft) W 270 0,7 C 8,7 C 0,0 km/h (0 Bft)
09.01.2015 15:52 7,2 C 63 % 1024,4 hPa 0,0 l/m 0,0 km/h (0 Bft) W 270 0,6 C 8,7 C 0,0 km/h (0 Bft)
09.01.2015 15:57 7,4 C 63 % 1024,1 hPa 0,0 l/m 0,0 km/h (0 Bft) W 270 0,8 C 8,7 C 0,0 km/h (0 Bft)
09.01.2015 16:02 7,4 C 62 % 1024,1 hPa 0,0 l/m 0,0 km/h (0 Bft) W 270 0,6 C 8,7 C 0,0 km/h (0 Bft)
09.01.2015 16:07 7,3 C 63 % 1024,1 hPa 0,0 l/m 0,0 km/h (0 Bft) W 270 0,7 C 8,7 C 0,0 km/h (0 Bft)
09.01.2015 16:12 7,5 C 63 % 1024,1 hPa 0,0 l/m 0,0 km/h (0 Bft) W 270 0,9 C 8,7 C 0,0 km/h (0 Bft)
09.01.2015 16:17 7,5 C 63 % 1024,2 hPa 0,0 l/m 0,0 km/h (0 Bft) W 270 0,9 C 8,7 C 0,0 km/h (0 Bft)
09.01.2015 16:22 7,4 C 63 % 1024,2 hPa 0,0 l/m 0,0 km/h (0 Bft) W 270 0,8 C 8,7 C 0,0 km/h (0 Bft)
09.01.2015 16:27 7,4 C 63 % 1024,2 hPa 0,0 l/m 0,0 km/h (0 Bft) W 270 0,8 C 8,7 C 0,0 km/h (0 Bft)
09.01.2015 16:32 7,4 C 63 % 1024,2 hPa 0,0 l/m 0,0 km/h (0 Bft) W 270 0,8 C 8,7 C 0,0 km/h (0 Bft)
09.01.2015 16:37 7,3 C 64 % 1024,2 hPa 0,0 l/m 0,0 km/h (0 Bft) W 270 1,0 C 8,7 C 0,0 km/h (0 Bft)
09.01.2015 16:42 7,3 C 64 % 1024,2 hPa 0,0 l/m 0,0 km/h (0 Bft) W 270 1,0 C 8,7 C 0,0 km/h (0 Bft)
09.01.2015 16:47 7,1 C 65 % 1024,2 hPa 0,0 l/m 0,0 km/h (0 Bft) W 270 1,0 C 8,7 C 0,0 km/h (0 Bft)
09.01.2015 16:52 7,1 C 65 % 1024,2 hPa 0,0 l/m 0,0 km/h (0 Bft) W 270 1,0 C 8,7 C 0,0 km/h (0 Bft)
09.01.2015 16:57 7,0 C 66 % 1023,6 hPa 0,0 l/m 0,0 km/h (0 Bft) W 270 1,1 C 8,7 C 0,0 km/h (0 Bft)
09.01.2015 17:02 7,2 C 66 % 1023,6 hPa 0,0 l/m 0,0 km/h (0 Bft) W 270 1,3 C 8,7 C 0,0 km/h (0 Bft)
09.01.2015 17:07 7,3 C 66 % 1023,6 hPa 0,0 l/m 0,0 km/h (0 Bft) W 270 1,4 C 8,7 C 0,0 km/h (0 Bft)
09.01.2015 17:12 7,3 C 66 % 1023,6 hPa 0,0 l/m 0,0 km/h (0 Bft) W 270 1,4 C 8,7 C 0,0 km/h (0 Bft)
09.01.2015 17:17 7,3 C 66 % 1023,4 hPa 0,0 l/m 0,0 km/h (0 Bft) W 270 1,4 C 8,7 C 0,0 km/h (0 Bft)
09.01.2015 17:22 7,3 C 66 % 1023,4 hPa 0,0 l/m 0,0 km/h (0 Bft) W 270 1,4 C 8,7 C 0,0 km/h (0 Bft)
09.01.2015 17:27 7,3 C 66 % 1023,4 hPa 0,0 l/m 0,0 km/h (0 Bft) W 270 1,4 C 8,7 C 0,0 km/h (0 Bft)
09.01.2015 17:32 7,3 C 67 % 1023,4 hPa 0,0 l/m 0,0 km/h (0 Bft) W 270 1,6 C 8,7 C 0,0 km/h (0 Bft)
09.01.2015 17:37 7,1 C 69 % 1023,6 hPa 0,0 l/m 0,0 km/h (0 Bft) W 270 1,8 C 8,7 C 0,0 km/h (0 Bft)
09.01.2015 17:42 7,1 C 69 % 1023,6 hPa 0,0 l/m 0,0 km/h (0 Bft) W 270 1,8 C 8,7 C 0,0 km/h (0 Bft)
09.01.2015 17:47 7,0 C 70 % 1023,6 hPa 0,0 l/m 0,0 km/h (0 Bft) W 270 1,9 C 8,7 C 0,0 km/h (0 Bft)
09.01.2015 17:52 7,1 C 70 % 1023,6 hPa 0,0 l/m 0,0 km/h (0 Bft) W 270 2,0 C 8,7 C 0,0 km/h (0 Bft)
09.01.2015 17:57 7,1 C 72 % 1023,2 hPa 0,0 l/m 0,0 km/h (0 Bft) W 270 2,4 C 8,7 C 0,0 km/h (0 Bft)
09.01.2015 18:02 7,1 C 71 % 1023,2 hPa 0,0 l/m 0,0 km/h (0 Bft) W 270 2,2 C 8,7 C 0,0 km/h (0 Bft)
09.01.2015 18:07 7,1 C 72 % 1023,2 hPa 0,0 l/m 0,0 km/h (0 Bft) W 270 2,4 C 8,7 C 0,0 km/h (0 Bft)
09.01.2015 18:12 7,0 C 72 % 1023,2 hPa 0,0 l/m 0,0 km/h (0 Bft) W 270 2,3 C 8,7 C 0,0 km/h (0 Bft)
09.01.2015 18:17 7,2 C 72 % 1023,1 hPa 0,0 l/m 0,0 km/h (0 Bft) W 270 2,5 C 8,7 C 0,0 km/h (0 Bft)
09.01.2015 18:22 7,2 C 71 % 1023,1 hPa 0,0 l/m 0,0 km/h (0 Bft) W 270 2,3 C 8,7 C 0,0 km/h (0 Bft)
09.01.2015 18:27 7,2 C 72 % 1023,1 hPa 0,0 l/m 0,0 km/h (0 Bft) W 270 2,5 C 8,7 C 0,0 km/h (0 Bft)
09.01.2015 18:32 7,4 C 72 % 1023,1 hPa 0,0 l/m 0,0 km/h (0 Bft) W 270 2,7 C 8,7 C 0,0 km/h (0 Bft)
09.01.2015 18:37 7,5 C 72 % 1022,2 hPa 0,0 l/m 0,0 km/h (0 Bft) W 270 2,8 C 8,7 C 0,0 km/h (0 Bft)
09.01.2015 18:42 7,4 C 72 % 1022,2 hPa 0,0 l/m 0,0 km/h (0 Bft) W 270 2,7 C 8,7 C 0,0 km/h (0 Bft)
09.01.2015 18:45 7,3 C 73 % 1022,2 hPa 0,0 l/m 0,0 km/h (0 Bft) W 270 2,8 C 8,7 C 0,0 km/h (0 Bft)
09.01.2015 18:53 7,8 C 72 % 1022,2 hPa 0,0 l/m 12,4 km/h (3 Bft) W-SW 247 3,1 C 0,9 C 12,1 km/h (2 Bft)
09.01.2015 18:58 7,8 C 72 % 1023,6 hPa 0,0 l/m 12,4 km/h (3 Bft) W-SW 247 3,1 C 0,9 C 12,1 km/h (2 Bft)
09.01.2015 19:03 6,9 C 76 % 1023,6 hPa 0,0 l/m 12,4 km/h (3 Bft) W-SW 247 3,0 C 0,9 C 12,1 km/h (2 Bft)
09.01.2015 19:08 6,6 C 80 % 1023,6 hPa 0,0 l/m 0,0 km/h (0 Bft) W-SW 247 3,4 C 5,3 C 0,0 km/h (0 Bft)
09.01.2015 19:12 6,8 C 80 % 1023,6 hPa 0,0 l/m 0,0 km/h (0 Bft) W-SW 247 3,6 C 5,3 C 0,0 km/h (0 Bft)
09.01.2015 19:16 6,8 C 80 % 1023,6 hPa 0,0 l/m 0,0 km/h (0 Bft) W-SW 247 3,6 C 5,3 C 0,0 km/h (0 Bft)
09.01.2015 19:20 7,2 C 79 % 1023,4 hPa 0,0 l/m 17,1 km/h (3 Bft) W-SW 247 3,8 C -2,7 C 39,1 km/h (6 Bft)
09.01.2015 19:22 7,3 C 80 % 1023,4 hPa 0,0 l/m 18,3 km/h (3 Bft) W-SW 247 4,1 C -3,2 C 12,7 km/h (3 Bft)
09.01.2015 19:26 7,3 C 80 % 1023,4 hPa 0,0 l/m 18,3 km/h (3 Bft) W-SW 247 4,1 C -3,2 C 12,7 km/h (3 Bft)
09.01.2015 19:30 7,3 C 81 % 1023,4 hPa 0,0 l/m 16,1 km/h (3 Bft) W-SW 247 4,3 C -1,8 C 18,8 km/h (3 Bft)
09.01.2015 19:32 7,2 C 82 % 1023,4 hPa 0,0 l/m 16,6 km/h (3 Bft) W-SW 247 4,3 C -2,8 C 30,3 km/h (5 Bft)
09.01.2015 19:36 7,2 C 82 % 1023,4 hPa 0,0 l/m 16,6 km/h (3 Bft) W-SW 247 4,3 C -2,8 C 30,3 km/h (5 Bft)
09.01.2015 19:40 7,0 C 83 % 1023,1 hPa 0,0 l/m 15,3 km/h (3 Bft) W 270 4,3 C -2,7 C 19,8 km/h (3 Bft)
09.01.2015 19:45 7,1 C 84 % 1023,1 hPa 0,0 l/m 15,6 km/h (3 Bft) W 270 4,6 C -2,8 C 19,0 km/h (3 Bft)
09.01.2015 19:47 7,1 C 84 % 1023,1 hPa 0,0 l/m 16,4 km/h (3 Bft) W-SW 247 4,6 C -3,6 C 20,6 km/h (4 Bft)
09.01.2015 19:52 7,1 C 84 % 1023,1 hPa 0,0 l/m 15,9 km/h (3 Bft) W 270 4,6 C -3,3 C 15,6 km/h (3 Bft)
09.01.2015 20:01 7,1 C 84 % 1022,5 hPa 0,0 l/m 13,2 km/h (3 Bft) W-SW 247 4,6 C -1,4 C 12,6 km/h (3 Bft)
09.01.2015 20:02 7,1 C 84 % 1022,5 hPa 0,0 l/m 12,2 km/h (2 Bft) W-SW 247 4,6 C -0,5 C 10,0 km/h (2 Bft)
09.01.2015 20:04 7,1 C 84 % 1022,5 hPa 0,0 l/m 12,2 km/h (2 Bft) W-SW 247 4,6 C -0,5 C 10,0 km/h (2 Bft)
09.01.2015 20:05 7,1 C 84 % 1022,5 hPa 0,0 l/m 12,2 km/h (2 Bft) W-SW 247 4,6 C -0,5 C 10,0 km/h (2 Bft)
09.01.2015 20:07 7,2 C 83 % 1022,5 hPa 0,0 l/m 10,0 km/h (2 Bft) W-SW 247 4,5 C 1,6 C 12,9 km/h (3 Bft)
09.01.2015 20:11 7,2 C 83 % 1022,5 hPa 0,0 l/m 10,0 km/h (2 Bft) W-SW 247 4,5 C 1,6 C 12,9 km/h (3 Bft)
09.01.2015 20:15 7,3 C 83 % 1022,5 hPa 0,0 l/m 10,0 km/h (2 Bft) W-SW 247 4,6 C 1,7 C 12,2 km/h (2 Bft)
09.01.2015 20:20 7,4 C 82 % 1022,2 hPa 0,0 l/m 10,1 km/h (2 Bft) W-SW 247 4,5 C 2,0 C 14,3 km/h (3 Bft)
09.01.2015 20:25 7,5 C 81 % 1022,2 hPa 0,0 l/m 10,5 km/h (2 Bft) W-SW 247 4,5 C 1,6 C 14,3 km/h (3 Bft)
09.01.2015 20:30 7,4 C 81 % 1022,2 hPa 0,0 l/m 9,3 km/h (2 Bft) SW 225 4,4 C 2,8 C 10,9 km/h (2 Bft)
09.01.2015 20:35 7,5 C 80 % 1022,2 hPa 0,0 l/m 8,9 km/h (2 Bft) W 270 4,3 C 3,2 C 12,1 km/h (2 Bft)
09.01.2015 20:40 7,7 C 80 % 1022,6 hPa 0,0 l/m 12,6 km/h (3 Bft) W-SW 247 4,5 C -0,1 C 19,8 km/h (3 Bft)
09.01.2015 20:45 7,6 C 80 % 1022,6 hPa 0,0 l/m 14,2 km/h (3 Bft) W-SW 247 4,4 C -1,3 C 37,3 km/h (5 Bft)
09.01.2015 20:50 7,5 C 80 % 1022,6 hPa 0,0 l/m 14,3 km/h (3 Bft) W-SW 247 4,3 C -1,8 C 27,7 km/h (4 Bft)
09.01.2015 20:55 7,5 C 81 % 1022,6 hPa 0,0 l/m 15,8 km/h (3 Bft) W 270 4,5 C -2,8 C 31,2 km/h (5 Bft)
09.01.2015 21:00 7,3 C 82 % 1022,8 hPa 0,0 l/m 15,6 km/h (3 Bft) SW 225 4,4 C -2,8 C 13,8 km/h (3 Bft)
09.01.2015 21:05 7,3 C 82 % 1022,8 hPa 0,0 l/m 14,2 km/h (3 Bft) W-SW 247 4,4 C -2,1 C 14,2 km/h (3 Bft)
09.01.2015 21:10 7,2 C 83 % 1022,8 hPa 0,0 l/m 13,7 km/h (3 Bft) W-SW 247 4,5 C -1,9 C 23,2 km/h (4 Bft)
09.01.2015 21:15 7,2 C 83 % 1022,8 hPa 0,0 l/m 15,0 km/h (3 Bft) W-SW 247 4,5 C -2,9 C 25,3 km/h (4 Bft)
09.01.2015 21:20 7,2 C 84 % 1022,7 hPa 0,0 l/m 13,8 km/h (3 Bft) NO 45 4,7 C -2,0 C 17,9 km/h (3 Bft)
09.01.2015 21:25 7,2 C 84 % 1022,7 hPa 0,0 l/m 14,0 km/h (3 Bft) S 180 4,7 C -2,1 C 17,2 km/h (3 Bft)
09.01.2015 21:30 7,2 C 84 % 1022,7 hPa 0,0 l/m 16,3 km/h (3 Bft) W-SW 247 4,7 C -3,7 C 20,9 km/h (4 Bft)
09.01.2015 21:35 7,1 C 84 % 1022,7 hPa 0,0 l/m 16,6 km/h (3 Bft) SW 225 4,6 C -4,1 C 29,8 km/h (5 Bft)
09.01.2015 21:40 7,1 C 84 % 1022,7 hPa 0,0 l/m 16,3 km/h (3 Bft) W-SW 247 4,6 C -3,9 C 22,9 km/h (4 Bft)
09.01.2015 21:45 7,2 C 83 % 1022,7 hPa 0,0 l/m 16,7 km/h (3 Bft) W-SW 247 4,5 C -4,1 C 21,4 km/h (4 Bft)
09.01.2015 21:50 7,1 C 83 % 1022,7 hPa 0,0 l/m 17,1 km/h (3 Bft) SW 225 4,4 C -4,4 C 45,1 km/h (6 Bft)
09.01.2015 21:55 7,1 C 83 % 1022,7 hPa 0,0 l/m 18,0 km/h (3 Bft) SW 225 4,4 C -5,0 C 28,0 km/h (4 Bft)
09.01.2015 22:00 7,0 C 83 % 1022,1 hPa 0,0 l/m 16,9 km/h (3 Bft) W 270 4,3 C -4,2 C 29,3 km/h (5 Bft)
09.01.2015 22:05 7,0 C 84 % 1022,1 hPa 0,0 l/m 16,9 km/h (3 Bft) W-SW 247 4,5 C -4,3 C 10,8 km/h (2 Bft)
09.01.2015 22:10 6,9 C 84 % 1022,1 hPa 0,0 l/m 15,9 km/h (3 Bft) S 180 4,4 C -3,7 C 25,7 km/h (4 Bft)
09.01.2015 22:15 7,0 C 84 % 1022,1 hPa 0,0 l/m 15,6 km/h (3 Bft) W 270 4,5 C -3,4 C 25,7 km/h (4 Bft)
09.01.2015 22:20 6,9 C 85 % 1022,3 hPa 0,0 l/m 15,6 km/h (3 Bft) W-SW 247 4,6 C -3,7 C 21,6 km/h (4 Bft)
09.01.2015 22:25 6,8 C 85 % 1022,3 hPa 0,0 l/m 15,1 km/h (3 Bft) SW 225 4,5 C -3,3 C 18,5 km/h (3 Bft)
09.01.2015 22:30 6,6 C 85 % 1022,3 hPa 0,0 l/m 13,2 km/h (3 Bft) W-SW 247 4,3 C -1,8 C 15,3 km/h (3 Bft)
09.01.2015 22:35 6,6 C 86 % 1022,3 hPa 0,0 l/m 11,4 km/h (2 Bft) W-SW 247 4,4 C -0,5 C 18,7 km/h (3 Bft)
09.01.2015 22:40 6,6 C 86 % 1021,4 hPa 0,0 l/m 11,9 km/h (2 Bft) W-SW 247 4,4 C -1,1 C 14,6 km/h (3 Bft)
09.01.2015 22:45 6,5 C 86 % 1021,4 hPa 0,0 l/m 11,3 km/h (2 Bft) W 270 4,3 C -0,6 C 8,9 km/h (2 Bft)
09.01.2015 22:50 6,6 C 86 % 1021,4 hPa 0,0 l/m 10,5 km/h (2 Bft) W-SW 247 4,4 C 0,2 C 13,5 km/h (3 Bft)
09.01.2015 22:55 6,7 C 86 % 1021,4 hPa 0,0 l/m 11,6 km/h (2 Bft) S 180 4,5 C -0,8 C 20,4 km/h (4 Bft)
09.01.2015 23:00 6,8 C 85 % 1021,2 hPa 0,0 l/m 11,9 km/h (2 Bft) W 270 4,5 C -1,1 C 11,4 km/h (2 Bft)
09.01.2015 23:05 6,9 C 85 % 1021,2 hPa 0,0 l/m 11,6 km/h (2 Bft) W-SW 247 4,6 C -0,6 C 14,3 km/h (3 Bft)
09.01.2015 23:10 6,9 C 85 % 1021,2 hPa 0,0 l/m 11,7 km/h (2 Bft) W 270 4,6 C -0,8 C 16,1 km/h (3 Bft)
09.01.2015 23:15 7,1 C 84 % 1021,2 hPa 0,0 l/m 12,2 km/h (2 Bft) W-SW 247 4,6 C -1,0 C 16,3 km/h (3 Bft)
09.01.2015 23:20 7,2 C 83 % 1021,2 hPa 0,0 l/m 12,9 km/h (3 Bft) W-SW 247 4,5 C -1,7 C 12,6 km/h (3 Bft)
09.01.2015 23:25 7,3 C 83 % 1021,2 hPa 0,0 l/m 14,2 km/h (3 Bft) N-NO 22 4,6 C -2,5 C 15,0 km/h (3 Bft)
09.01.2015 23:30 7,3 C 84 % 1021,2 hPa 0,0 l/m 13,4 km/h (3 Bft) W 270 4,8 C -1,7 C 16,9 km/h (3 Bft)
09.01.2015 23:35 7,5 C 84 % 1021,2 hPa 0,0 l/m 11,7 km/h (2 Bft) W 270 5,0 C -0,2 C 13,2 km/h (3 Bft)
09.01.2015 23:40 7,9 C 83 % 1021,2 hPa 0,0 l/m 12,7 km/h (3 Bft) W 270 5,2 C -0,7 C 30,4 km/h (5 Bft)
09.01.2015 23:42 8,1 C 81 % 1021,2 hPa 0,0 l/m 14,0 km/h (3 Bft) S-SO 157 5,0 C -1,2 C 24,0 km/h (4 Bft)
09.01.2015 23:47 8,1 C 80 % 1021,2 hPa 0,0 l/m 15,1 km/h (3 Bft) W-SW 247 4,9 C -1,5 C 12,7 km/h (3 Bft)
09.01.2015 23:52 8,2 C 80 % 1021,2 hPa 0,0 l/m 13,8 km/h (3 Bft) W-SW 247 5,0 C -0,4 C 13,4 km/h (3 Bft)
09.01.2015 23:57 8,4 C 80 % 1021,5 hPa 0,0 l/m 12,2 km/h (2 Bft) SO 135 5,2 C 1,2 C 13,0 km/h (3 Bft)
_ Min-Zeit 06:27 12:42 23:52 - 19:16 - - 12:42 21:55 19:16
Minimum _ 2,5 C 32 % 1021,2 hPa - 0,0 km/h (0 Bft) - - -6,0 C -5,0 C 0,0 km/h (0 Bft)
_ Max-Zeit 12:37 22:55 03:33 23:57 19:26 - - 23:40 18:45 21:50
Maximum _ 10,1 C 86 % 1031,6 hPa 0,0 l/m 18,3 km/h
W-SW (3 Bft)
- - 5,2 C 8,7 C 45,1 km/h
SW (6 Bft)
Durchschnitt _ 6,2 C 68 % 1026,5 hPa #0,0 l/m 3,1 km/h (1 Bft) W-SW - 0,4 C 2,4 C 4,2 km/h (1 Bft)